Home > Weather > Kalispell > Past weeks

Flag for USA Past Weather in Kalispell, Montana, USA — Yesterday and Last 2 Weeks

Now
59 °F

Overcast.


Feels Like: 56 °F
Forecast: 51 / 72 °F
Wind: 16 mph from Northeast

Location: Kalispell - Glacier Park International

Current Time: Aug 24, 2016 at 6:26:04 AM

Latest Report: Aug 24, 2016 at 5:55 AM


Visibility: 10 mi

Pressure: 30.22 "Hg (27.16 "Hg at 902m altitude)

Humidity: 56%

Dew Point: 43 °F

Location of KalispellLocation

Past Weather in Kalispell — Graph

°F

Kalispell Temperature Yesterday

Maximum temperature yesterday: 73 °F (at 2:55 PM)
Minimum temperature yesterday: 40 °F (at 6:55 AM)
Average temperature yesterday: 60 °F

High & Low Weather Summary for the Past Weeks

 TemperatureHumidityPressure
High91 °F (Aug 16, 5:55 PM)100% (Aug 9, 11:55 AM)30.34 "Hg (Aug 9, 11:55 AM)
Low39 °F (Aug 19, 6:55 AM)11% (Aug 21, 5:55 PM)29.61 "Hg (Aug 21, 5:55 PM)
Average65 °F60%29.99 "Hg
* Reported Aug 9 4:55 AM — Aug 24 4:55 AM, Kalispell, Weather by CustomWeather, © 2016

Note: Actual official high and low records may vary slightly from our data, if they occured in-between our weather recording intervals... More about our weather records

Advertising

Kalispell Weather History for the Previous 24 Hours

Scroll right to see more
 ConditionsComfort  
Time TempWeatherWind HumidityBarometerVisibility
4:55 AM
Wed, Aug 24
58 °FOvercast.15 mph58%30.21 "Hg10 mi
3:55 AM58 °FPassing clouds.18 mph56%30.20 "Hg10 mi
2:55 AM57 °FClear.18 mph60%30.19 "Hg10 mi
1:55 AM60 °FPassing clouds.18 mph53%30.19 "Hg10 mi
12:55 AM61 °FPassing clouds.17 mph52%30.18 "Hg10 mi
11:55 PM
Tue, Aug 23
62 °FMostly cloudy.17 mph48%30.17 "Hg10 mi
10:55 PM62 °FOvercast.17 mph48%30.18 "Hg10 mi
9:55 PM61 °FMostly cloudy.13 mph50%30.16 "Hg10 mi
8:55 PM62 °FOvercast.12 mph48%30.15 "Hg10 mi
7:55 PM64 °FBroken clouds.13 mph47%30.16 "Hg10 mi
6:55 PM67 °FOvercast.15 mph44%30.15 "Hg10 mi
5:55 PM69 °FOvercast.14 mph33%30.13 "Hg10 mi
4:55 PM71 °FOvercast.14 mph31%30.11 "Hg10 mi
3:55 PM70 °FMostly cloudy.10 mph32%30.10 "Hg10 mi
2:55 PM73 °FPartly sunny.10 mph29%30.09 "Hg10 mi
1:55 PM70 °FOvercast.N/A32%30.08 "Hg10 mi
12:55 PM69 °FSunny.6 mph32%30.08 "Hg10 mi
11:55 AM67 °FSunny.10 mph35%30.08 "Hg10 mi
10:55 AM64 °FSunny.7 mph37%30.08 "Hg10 mi
9:55 AM61 °FSunny.9 mph44%30.07 "Hg10 mi
8:55 AM57 °FSunny.10 mph51%30.06 "Hg10 mi
7:55 AM45 °FSunny.N/A86%30.06 "Hg10 mi
6:55 AM40 °FClear.9 mph89%30.03 "Hg10 mi
Weather by CustomWeather, © 2016

See weather overviewHow to use our weather pages